Regional Weather Roundup
Issued by NWS Wakefield, VA

Home | Current Version | Previous Version | Graphics & Text | Print | Product List | Glossary On
Versions: 1 2 3 4 5 6 7 8 9 10 11 12 13 14 15 16 17 18 19 20 21 22 23 24 25 26 27 28 29 30 31 32 33 34 35 36 37 38 39 40 41 42 43 44 45 46 47 48 49 50
000
ASUS41 KAKQ 282115
RWRAKQ

REGIONAL WEATHER ROUNDUP
NATIONAL WEATHER SERVICE WAKEFIELD VA
500 PM EDT THU MAY 28 2015

Note: "fair" indicates few or no clouds below 12,000 feet with no
significant weather and/or obstructions to visibility. * = Denotes
station may not report precipitation (e.g., rain,snow,etc.),
thunder or fog.

VAZ042-051-052>054-056-282200-
NORTHERN VIRGINIA

CITY           SKY/WX    TMP DP  RH WIND       PRES   REMARKS
WASH NATIONAL  PTSUNNY   88  66  48 S7        30.14F
DULLES         PTSUNNY   85  62  46 W6        30.15F
FORT BELVOIR   PTSUNNY   88  65  46 SE7       30.14F
QUANTICO       PTSUNNY   80  66  62 SW7       30.16F
FREDERICKSBRG* PTSUNNY   88  62  41 E3        30.14F
STAFFORD*      PTSUNNY   84  64  51 CALM      30.19F
WARRENTON      PTSUNNY   84  69  59 SW6       30.16F
CULPEPER*      CLOUDY    85  61  44 SW3       30.17F
MANASSAS*      HVY RAIN  84  68  58 NE15G24   30.16S FOG
LEESBURG*      PTSUNNY   86  64  48 CALM      30.17S
WINCHESTER     PTSUNNY   88  48  25 N5        30.18S
FRONT ROYAL*   MOCLDY    82  66  57 E3        30.17S
LURAY*         CLOUDY    84  66  54 CALM      30.18S
$$

VAZ048-049-060>072-079>083-282200-
CENTRAL AND SOUTH CENTRAL VIRGINIA

CITY           SKY/WX    TMP DP  RH WIND       PRES   REMARKS
RICHMOND       PTSUNNY   86  68  54 SE8       30.15F
CHESTERFIELD*  NOT AVBL
PETERSBURG*    MOSUNNY   87  73  63 S6        30.17S HX  95
HANOVER        PTSUNNY   85  68  56 S7        30.17F
TAPPAHANNOCK*  PTSUNNY   82  63  53 SE3       30.18S
QUINTON*       FAIR      85  69  58 S3        30.16S
CHARLOTTSVILLE CLOUDY    80  66  62 S9        30.17F
GORDONSVILLE*  CLOUDY    75  66  73 SE5G17    30.19R
ORANGE*        LGT RAIN  73  68  83 S5        30.20F
LOUISA*        PTSUNNY   82  72  69 CALM      30.16F
BUMPASS*       FAIR      87  66  49 CALM      30.16F
FARMVILLE*     CLOUDY    85  65  51 N3        30.14S
CREWE*         FAIR      87  65  48 SE7       30.16S
FORT PICKETT*  MOCLDY    86  68  54 S5        30.16F
CHASE CITY*    FAIR      89  68  50 SE7       30.16S
CLARKSVILLE*   FAIR      86  66  51 S3        30.15F
SOUTH HILL*    SUNNY     85  67  54 CALM      30.22F
LAWRENCEVILLE* FAIR      84  68  58 SE3       30.16F
EMPORIA*       SUNNY     84  66  54 SE6       30.17F
$$

VAZ088>098-282200-
SOUTHEAST VIRGINIA

CITY           SKY/WX    TMP DP  RH WIND       PRES   REMARKS
NORFOLK        CLOUDY    82  68  62 E8        30.17S
VIRGINIA BEACH PTSUNNY   84  68  58 SE13      30.17S THUNDER
NORFOLK NAVAL  PTSUNNY   86  68  54 E9        30.19S
WEST POINT*    PTSUNNY   89  63  42 S6        30.18S
SALUDA*        FAIR      82  73  74 SE6       30.17S
NEWPORT NEWS   LGT RAIN  80  70  71 NE3       30.18F
LANGLEY AFB    LGT RAIN  77  70  78 NE6       30.16F
FORT EUSTIS    PTSUNNY   77  77  99 SE3       30.15F
WILLIAMSBURG*  PTSUNNY   84  72  65 SE12      30.18F
HR EXEC AP*    FAIR      84  70  61 S5        30.18F
FRANKLIN*      CLOUDY    83  71  66 E3        30.17S
WAKEFIELD      MOSUNNY   84  69  60 S3        30.17S
$$

VAZ020-022-025-037-045-282200-
WEST CENTRAL AND SOUTHWEST VIRGINIA

CITY           SKY/WX    TMP DP  RH WIND       PRES   REMARKS
STAUNTON*      PTSUNNY   83  65  52 S8        30.22F
WAYNESBORO*    FAIR      78  64  62 S8        30.22S
HOT SPRINGS VA CLOUDY    71  60  67 NW3       30.32S
LYNCHBURG      MOSUNNY   81  66  60 VRB6      30.19F
DANVILLE       MOSUNNY   87  64  46 VRB7      30.16F
SOUTH BOSTON*  FAIR      87  63  44 S7        30.15F
MARTINSVILLE   DRIZZLE   73  67  81 CALM      30.22S
ROANOKE        PTSUNNY   86  58  38 N7        30.20F
BLACKSBURG     PTSUNNY   75  62  63 SE6       30.29R
DUBLIN*        PTSUNNY   82  61  49 SE10G16   30.25S
MARION*        PTSUNNY   80  57  45 E5        30.26F
HILLSVILLE*    NOT AVBL
RICHLANDS*     FAIR      80  63  55 N7        30.25S
WISE*          PTSUNNY   75  61  60 N7        30.26F
ABINGDON*      PTSUNNY   82  57  42 S9G17     30.22R
$$

MDZ021>025-VAZ099-100-282200-
SOUTHERN MARYLAND AND THE DELMARVA PENINSULA

CITY           SKY/WX    TMP DP  RH WIND       PRES   REMARKS
PATUXENT RIVER PTSUNNY   82  70  66 SE9       30.16F
BAY BRIDGE APT   N/A    N/A N/A N/A SE8       30.15F
LEONARDTOWN    PTSUNNY   82  70  65 E3        30.17F
DOVER          PTSUNNY   87  71  59 SW8       30.13S THUNDER
GEORGETOWN     PTSUNNY   85  67  54 SW10      30.16S
EASTON         MOSUNNY   86  68  54 W6        30.19F
CAMBRIDGE      PTSUNNY   82  70  65 S6        30.16S
SALISBURY      PTSUNNY   83  68  60 S9        30.17S
OCEAN CITY     PTSUNNY   72  65  78 S8        30.19S
WALLOPS ISLAND PTSUNNY   73  65  75 S18G28    30.20S
ACCOMACK*      PTSUNNY   77  68  73 S13       30.20R
$$

NCZ012>017-030>032-282200-
NORTH CENTRAL AND EASTERN NORTH CAROLINA

CITY           SKY/WX    TMP DP  RH WIND       PRES   REMARKS
ROANOKE RAPIDS FAIR      84  66  54 CALM      30.16F
RALEIGH        PTSUNNY   84  69  60 SW7       30.17S
ELIZABETH CITY MOSUNNY   82  67  60 SE8       30.19F
AHOSKIE*       SUNNY     82  67  61 S6        30.17S
EDENTON*         N/A     83  68  59 SE10      30.18F
CURRITUCK*     MOSUNNY   82  65  56 SE6       30.20S
KILL DEVIL HLS MOSUNNY   80  62  55 SE6       30.20F
MANTEO         MOSUNNY   78  64  60 S13       30.22S
CAPE HATTERAS  SUNNY     80  60  50 S8        30.22F
TARBORO*       FAIR      85  67  55 CALM      30.17F
GOLDSBORO      MOSUNNY   87  67  51 CALM      30.14F
WASHINGTON     SUNNY     83  66  56 S9        30.18F
GREENVILLE     MOSUNNY   82  68  61 SE6       30.18F
NEW BERN       MOSUNNY   84  65  52 S8        30.20F
WILMINGTON     SUNNY     80  61  52 SE10      30.20F
$$

VAZ048-282200-
ELSEWHERE

CITY           SKY/WX    TMP DP  RH WIND       PRES   REMARKS
HARRISBURG PA  PTSUNNY   85  60  42 N9        30.16F
BALTIMORE      PTSUNNY   87  62  43 N3        30.13F
ANNAPOLIS      PTSUNNY   83  67  58 S6        30.15S
ANDREWS AFB    NOT AVBL
PHILADELPHIA   CLOUDY    82  60  47 SW13      30.14S
HENDERSON NC   SUNNY     85  60  41 S5        30.17F
GREENSBORO     PTSUNNY   85  61  44 S8        30.17S
ROCKY MOUNT    MOSUNNY   87  67  51 VRB3      30.17F
$$

VAZ100-282200-
MARINE

STATION/POSITION TIME  TEMP    WIND        PRES    WAVE   SWELL
                       AIR SEA DIR/SP/G            HT/PER HT/PER
                 (UTC) (F)     (DEG/KT/KT) (MB)    (FT/S) (FT/S)
BRANDYWINE LGT   2000   68 68  170/ 15/ 17 1021.4F
CAPE MAY NJ      2000   72 72  160/ 11/ 15 1021.3F
LEWES DE         2000   81 65  160/  6/ 13 1021.1F
15NM E FENWICK I 2050   66 63              1022.0S   3/ 7
OCEAN-CITY-INLET 2000   63 58  200/ 12/ 15 1022.1F
WACHAPREAGUE VA  2000   74 77  190/ 12/ 15 1022.6F
THOMAS POINT MD  2100   74 72  180/ 10/ 10 1021.4F
GOOSES REEF MD   2100   73 71  170/ 12/ 14 1022.3S   1/ 2
COVE POINT MD    2000   72     190/ 10/ 11 1022.2F
SOLOMONS ISLAND  2000      69                N/A
BISHOPS HEAD MD  2000   75 80  150/ 12/ 14 1021.5F
PINEY POINT MD   2000          160/ 11/ 12   N/A
CAMBRIDGE MD     2000   80 73   50/  3/  4 1021.1F
LEWISETTA VA     2000   76 72              1021.3F
RAPPAHANNOCK LGT 2000          170/ 10/ 10 1022.5F
STINGRAY PT      2100   74 74  180/ 16/ 19 1022.1F   2/ 3
YORK RVR RNG VA  2000   75     180/ 11/ 14 1021.7F
YORKTOWN VA      2000   74 72  170/ 23/ 29 1021.8F
JAMESTOWN VA     2100   79 78  140/  8/ 10 1020.6F
DOMINION TERM VA 2000   81     210/  6/  6 1021.9F
KIPTOPEKE VA     2000      78  170/ 12/ 14   N/A
CHES BAY BRIDGE  2000   76 72   80/  7/  9 1021.6F
CAPE HENRY VA    2000   74     150/ 12/ 16 1020.9F
CHESAPEAKE LGHT  2000   69     170/ 25/ 26 1022.5F
WILLOUBY STN VA  2000   78      80/  9/  9 1022.8F
CAPE HENRY BUOY  2028      62                N/A     3/ 7
1ST LANDING BUOY 2100      72              1021.6F
CAPE CHARLES BUO 2026      71                N/A     3/ 7   2/ 7
OFFSHORE WE BUOY 2011      66                N/A     3/ 7   2/ 7
64NM E OF VA BCH 2050   69 66  160/  6/  6 1023.1F   3/ 8   3/ 8
DUCK PIER NC     2000   69 57  140/ 14/ 15 1022.2F
44100 DUCK FRF   2024      67                N/A     2/ 8
44056 DUCK FRF   2011      62                N/A     2/ 8
OREGON INLET NC  2000   76 78  200/  9/ 11 1023.8R
HATTERAS NC      2000   77 76  160/  7/  9 1023.4F
DIAMOND SHLS NC  2050   75 78  140/  6/  8 1023.5F   4/ 8   3/ 8
CAPE LOOKOUT NC  2100   76     160/  4/  5 1022.9F
$$


USA.gov is the U.S. government's official web portal to all federal, state and local government web resources and services.